Showing default

COSMOS 1828, 17583

Orbit data source: Space-Track

COSMOS 1828, 17583 is a payload satellite owned by UNKS (CIS) in LEO that was launched on Fri, 13 Mar 1987 UTC via a TSIKLON-3 launch vehicle from the Plesetsk Missile And Space Complex (PKMTR). Payload-class satellites include a variety of spacecraft equipped with specific instruments for various scientific and technological missions. These include communications satellites like Starlink; space stations such as the ISS; scientific satellites like the Hubble; Earth observation satellites from companies like Planet Labs, Umbra, and HawkEye 360; GPS; miniature CubeSats for education and research; and military/defense satellites.

Loading next visibility...
Identifier
17583, 1987-026B
Orbit
LEO
Last TLE update
16 hours ago
Origin
Manufacturer
NPO PM
Mission
Defense Communications
Bus & Motor
STRELA-3, Unknown motor
Mass
225 kg wet, 225 kg dry
Launch date (UTC)
1987-03-13 (38 years ago)
Launch vehicle
TSIKLON-3
Launch site
Plesetsk Missile And Space Complex (PKMTR)
Object type
Payload
Rocket body
Debris
Shape & HBR
Cyl, 1.6 m
Radar Cross Section
1.257 m², Large (>1 m²)

Expand to show TLE details & history

TLE from 16 hours ago
0 COSMOS 1828
1 17583U 87026B   25128.59250819  .00000005  00000-0 -30101-4 0  9999
2 17583  82.5672  66.4413 0017608 275.6160 258.5581 12.66257959763337
Epoch: 2025-05-08T14:13Z
Definitive object data (Epoch: 2025-05-08T14:13:12.707Z)
Latitude
5.89814°
Longitude
165.70916°
Altitude
1,402.126 km
Speed
7.158 km/s
True Right ascension
16h 22m 41s
True Declination
5° 51' 58"
Sunlit
Object was in full shadow at TLE epoch
Visualization TLE readout
Latitude
-77.56372°
Longitude
-50.00575°
Altitude
1,411.335 km
Speed
7.161 km/s
Apparent Right ascension
02h 04m 10s
Apparent Declination
-60° 33' 12"
Sunlit
Object is in daylight
Visualization observer readout
Local Sidereal Time
14:05:39
Azimuth
179.481° S
Elevation
-69.362°
Doppler factor
1
Orbital elements
Apogee altitude
1,408.222 km
Perigee altitude
1,380.85 km
Semi-major axis
7,772.673 km
Eccentricity
0.0017608
Inclination
82.5672°
RAAN
66.4413°
Arg. of periapsis
275.616°
True anomaly
258.36042°
Mean anomaly
258.5581°
Eccentric anomaly
258.45925°
Mean motion
3.16729 °/min
BSTAR
-0.000030101
Orbital period
113.66 mins
Loading maneuver chart data...
Loading SW <> Apogee altitude chart data...
Loading historical data...
Loading historical data...
Loading historical data...
Loading historical data...
Loading historical data...
Loading historical data...
Loading historical data...

COSMOS 1828 Visibility forecast

Observer location: undefined°, undefined°

Span
Click to sort rows by Start time (UTC) header in descending order
Start Az.
Max El. time (UTC)
Max El. Az.
Max El.
End time (UTC)
End Az.
15 mins2025-05-09 06:57:54.346Z2.214° NNE2025-05-09 07:05:54.346Z76.778° E37.428°2025-05-09 07:12:54.346Z147.818° SSE
12 mins2025-05-09 08:54:54.346Z326.256° NNW2025-05-09 08:59:54.346Z278.732° WNW28.659°2025-05-09 09:06:54.346Z217.033° SW
14 mins2025-05-09 19:44:54.346Z155.367° SSE2025-05-09 19:50:54.346Z94.61° ESE36.688°2025-05-09 19:58:54.346Z18.785° NNE
13 mins2025-05-09 21:39:54.346Z230.305° WSW2025-05-09 21:45:54.346Z286.918° WNW29.693°2025-05-09 21:52:54.346Z349.56° N
9 mins2025-05-10 05:45:54.346Z32.603° NE2025-05-10 05:49:54.346Z65.436° ENE17.514°2025-05-10 05:54:54.346Z103.744° ESE
|